Hourly Data Report for September 10, 2017

All times are specified in Local Standard Time (LST). Add 1 hour to adjust for Daylight Saving Time where and when it is observed.

MIRAMICHI RCS
NEW BRUNSWICK

47°00'34.000" N
65°27'54.000" W
33.00 m
8100989
71744
ACQ

Download Data

Hourly Data (September 2017)
Hourly Data Report for September 10, 2017
Temp Definition
°C
Dew Point Temp Definition
°C
Rel Hum Definition
%
Wind Dir Definition
10's deg

Wind Spd Definition
km/h
Visibility Definition
km
Stn Press Definition
kPa
Hmdx Definition


Wind Chill Definition


Weather Definition


TIME
00:00 10.8 10.0 95 1 5   102.03     LegendNANA
01:00 10.7 9.9 95 36 5   102.04     LegendNANA
02:00 10.2 9.1 93 36 4   102.03     LegendNANA
03:00 8.1 7.4 95 30 2   102.01     LegendNANA
04:00 9.7 8.9 95 35 6   102.03     LegendNANA
05:00 7.7 6.9 94   0   102.07     LegendNANA
06:00 7.0 6.2 95   0   102.11     LegendNANA
07:00 8.2 7.6 96 23 1   102.13     LegendNANA
08:00 11.1 9.7 91 30 5   102.11     LegendNANA
09:00 13.5 10.2 80 28 5   102.09     LegendNANA
10:00 15.8 10.9 73 30 5   102.04     LegendNANA
11:00 17.7 10.3 62 33 3   101.99     LegendNANA
12:00 19.2 10.4 57 10 3   101.92     LegendNANA
13:00 20.0 8.4 47 1 8   101.85     LegendNANA
14:00 19.7 5.9 41 1 13   101.80     LegendNANA
15:00 19.1 7.2 46 36 11   101.75     LegendNANA
16:00 18.3 8.2 52 33 9   101.72     LegendNANA
17:00 17.3 8.7 57 35 8   101.70     LegendNANA
18:00 16.1 9.0 63 33 4   101.71     LegendNANA
19:00 14.9 9.4 70 29 6   101.72     LegendNANA
20:00 14.0 9.0 72 25 5   101.69     LegendNANA
21:00 14.0 8.4 69 28 10   101.63     LegendNANA
22:00 13.3 8.8 74 29 10   101.62     LegendNANA
23:00 12.2 10.2 88 28 7   101.59     LegendNANA

Notes on Data Quality.

Legend

  • E = Estimated
  • M = Missing
  • NA = Not Available
  • ‡ = Partner data that is not subject to review by the National Climate Archives
Date modified: